{"data":{"norad_id":61886,"intl_designator":"2024-204N","name":"STARLINK-11351 [DTC]","alt_names":[],"object_type":"PAYLOAD","status":"ACTIVE","operator":null,"country":"US","launch_date":"2024-11-09","launch_site_code":"AFWTR","launch_vehicle":null,"mission":null,"orbit_class":"UNKNOWN","rcs_meters":null,"size_class":null,"mass_kg":null,"dimensions":null,"purposes":["comms"],"wikipedia_slug":null,"has_3d_model":false,"image_url":null,"decayed_at":null,"tle_current":{"epoch":"2026-05-24T19:22:48.405216Z","epoch_age_seconds":91740,"freshness":"FRESH","line1":"1 61886U 24204N   26144.80750469  .00000361  00000+0  78330-5 0  9992","line2":"2 61886  53.1579 340.7430 0000841  82.8122 277.2991 15.69706326 88871","mean_motion":15.69706326,"eccentricity":8.41e-5,"inclination_deg":53.1579,"raan_deg":340.743,"arg_perigee_deg":82.8122,"mean_anomaly_deg":277.2991,"bstar":7.833e-6,"rev_number":8887,"period_min":91.736904932369,"perigee_km":359.17060879635,"apogee_km":360.30391924756,"semimajor_km":6737.874264022,"source":"CELESTRAK","updated_at":"2026-05-25T13:38:19.477665Z"}}}